owner,sensor,date,latitude,longitude,vertical_datum,wind_speed,wind_to_direction,wind_speed_of_gust,qcFlag 
DISL,ioos:station:DISL:KATA:1,2012-04-01T00:00:00Z,30.2583,-88.2131,0.0,6.38,229.3,-9999.0,'1111122,1111122,1111122' 
DISL,ioos:station:DISL:KATA:1,2012-04-01T00:30:00Z,30.2583,-88.2131,0.0,6.1,219.8,-9999.0,'1111122,1111122,1111122' 
DISL,ioos:station:DISL:KATA:1,2012-04-01T01:00:00Z,30.2583,-88.2131,0.0,6.52,223.1,-9999.0,'1111122,1111122,1111122' 
DISL,ioos:station:DISL:KATA:1,2012-04-01T01:30:00Z,30.2583,-88.2131,0.0,7.17,218.9,-9999.0,'1111122,1111122,1111122' 
DISL,ioos:station:DISL:KATA:1,2012-04-01T02:00:00Z,30.2583,-88.2131,0.0,7.38,221.7,-9999.0,'1111122,1111122,1111122' 
DISL,ioos:station:DISL:KATA:1,2012-04-01T02:30:00Z,30.2583,-88.2131,0.0,7.49,220.5,-9999.0,'1111122,1111122,1111122' 
DISL,ioos:station:DISL:KATA:1,2012-04-01T03:00:00Z,30.2583,-88.2131,0.0,6.7,228.9,-9999.0,'1111122,1111122,1111122' 
DISL,ioos:station:DISL:KATA:1,2012-04-01T03:30:00Z,30.2583,-88.2131,0.0,6.61,234.5,-9999.0,'1111122,1111122,1111122' 
DISL,ioos:station:DISL:KATA:1,2012-04-01T04:00:00Z,30.2583,-88.2131,0.0,6.5,232.0,-9999.0,'1111122,1111122,1111122' 
DISL,ioos:station:DISL:KATA:1,2012-04-01T04:30:00Z,30.2583,-88.2131,0.0,5.44,233.7,-9999.0,'1111122,1111122,1111122' 
DISL,ioos:station:DISL:KATA:1,2012-04-01T05:00:00Z,30.2583,-88.2131,0.0,4.8,240.8,-9999.0,'1111122,1111122,1111122' 
DISL,ioos:station:DISL:KATA:1,2012-04-01T05:30:00Z,30.2583,-88.2131,0.0,4.32,236.8,-9999.0,'1111122,1111122,1111122' 
DISL,ioos:station:DISL:KATA:1,2012-04-01T06:00:00Z,30.2583,-88.2131,0.0,3.43,251.2,-9999.0,'1111122,1111122,1111122' 
DISL,ioos:station:DISL:KATA:1,2012-04-01T06:30:00Z,30.2583,-88.2131,0.0,4.72,243.0,-9999.0,'1111122,1111122,1111122' 
DISL,ioos:station:DISL:KATA:1,2012-04-01T07:00:00Z,30.2583,-88.2131,0.0,4.53,236.0,-9999.0,'1111122,1111122,1111122' 
DISL,ioos:station:DISL:KATA:1,2012-04-01T07:30:00Z,30.2583,-88.2131,0.0,5.11,242.1,-9999.0,'1111122,1111122,1111122' 
DISL,ioos:station:DISL:KATA:1,2012-04-01T08:00:00Z,30.2583,-88.2131,0.0,4.97,237.8,-9999.0,'1111122,1111122,1111122' 
DISL,ioos:station:DISL:KATA:1,2012-04-01T08:30:00Z,30.2583,-88.2131,0.0,5.33,236.2,-9999.0,'1111122,1111122,1111122' 
DISL,ioos:station:DISL:KATA:1,2012-04-01T09:00:00Z,30.2583,-88.2131,0.0,5.52,254.2,-9999.0,'1111122,1111122,1111122' 
DISL,ioos:station:DISL:KATA:1,2012-04-01T09:30:00Z,30.2583,-88.2131,0.0,5.68,258.1,-9999.0,'1111122,1111122,1111122' 
DISL,ioos:station:DISL:KATA:1,2012-04-01T10:00:00Z,30.2583,-88.2131,0.0,5.85,265.5,-9999.0,'1111122,1111122,1111122' 
DISL,ioos:station:DISL:KATA:1,2012-04-01T10:30:00Z,30.2583,-88.2131,0.0,6.19,265.8,-9999.0,'1111122,1111122,1111122' 
DISL,ioos:station:DISL:KATA:1,2012-04-01T11:00:00Z,30.2583,-88.2131,0.0,5.41,269.4,-9999.0,'1111122,1111122,1111122' 
DISL,ioos:station:DISL:KATA:1,2012-04-01T11:30:00Z,30.2583,-88.2131,0.0,4.89,268.3,-9999.0,'1111122,1111122,1111122' 
DISL,ioos:station:DISL:KATA:1,2012-04-01T12:00:00Z,30.2583,-88.2131,0.0,4.23,282.1,-9999.0,'1111122,1111122,1111122' 
DISL,ioos:station:DISL:KATA:1,2012-04-01T12:30:00Z,30.2583,-88.2131,0.0,3.93,289.3,-9999.0,'1111122,1111122,1111122' 
DISL,ioos:station:DISL:KATA:1,2012-04-01T13:00:00Z,30.2583,-88.2131,0.0,2.75,351.6,-9999.0,'1111122,1111122,1111122' 
DISL,ioos:station:DISL:KATA:1,2012-04-01T13:30:00Z,30.2583,-88.2131,0.0,2.4,347.4,-9999.0,'1111122,1111122,1111122' 
DISL,ioos:station:DISL:KATA:1,2012-04-01T14:00:00Z,30.2583,-88.2131,0.0,1.61,350.3,-9999.0,'1111122,1111122,1111122' 
DISL,ioos:station:DISL:KATA:1,2012-04-01T14:30:00Z,30.2583,-88.2131,0.0,1.04,330.6,-9999.0,'1111122,1111122,1111122' 
DISL,ioos:station:DISL:KATA:1,2012-04-01T15:00:00Z,30.2583,-88.2131,0.0,0.19,334.5,-9999.0,'1111122,1111122,1111122' 
DISL,ioos:station:DISL:KATA:1,2012-04-01T15:30:00Z,30.2583,-88.2131,0.0,0.22,143.3,-9999.0,'1111122,1111122,1111122' 
DISL,ioos:station:DISL:KATA:1,2012-04-01T16:00:00Z,30.2583,-88.2131,0.0,2.14,189.9,-9999.0,'1111122,1111122,1111122' 
DISL,ioos:station:DISL:KATA:1,2012-04-01T16:30:00Z,30.2583,-88.2131,0.0,2.71,192.1,-9999.0,'1111122,1111122,1111122' 
DISL,ioos:station:DISL:KATA:1,2012-04-01T17:00:00Z,30.2583,-88.2131,0.0,4.15,209.5,-9999.0,'1111122,1111122,1111122' 
DISL,ioos:station:DISL:KATA:1,2012-04-01T17:30:00Z,30.2583,-88.2131,0.0,4.97,214.1,-9999.0,'1111122,1111122,1111122' 
DISL,ioos:station:DISL:KATA:1,2012-04-01T18:00:00Z,30.2583,-88.2131,0.0,3.24,241.4,-9999.0,'1111122,1111122,1111122' 
DISL,ioos:station:DISL:KATA:1,2012-04-01T18:30:00Z,30.2583,-88.2131,0.0,3.97,221.7,-9999.0,'1111122,1111122,1111122' 
DISL,ioos:station:DISL:KATA:1,2012-04-01T19:00:00Z,30.2583,-88.2131,0.0,3.79,232.4,-9999.0,'1111122,1111122,1111122' 
DISL,ioos:station:DISL:KATA:1,2012-04-01T19:30:00Z,30.2583,-88.2131,0.0,4.03,226.7,-9999.0,'1111122,1111122,1111122' 
DISL,ioos:station:DISL:KATA:1,2012-04-01T20:00:00Z,30.2583,-88.2131,0.0,4.11,221.3,-9999.0,'1111122,1111122,1111122' 
DISL,ioos:station:DISL:KATA:1,2012-04-01T20:30:00Z,30.2583,-88.2131,0.0,3.79,225.7,-9999.0,'1111122,1111122,1111122' 
DISL,ioos:station:DISL:KATA:1,2012-04-01T21:00:00Z,30.2583,-88.2131,0.0,3.97,211.8,-9999.0,'1111122,1111122,1111122' 
DISL,ioos:station:DISL:KATA:1,2012-04-01T21:30:00Z,30.2583,-88.2131,0.0,3.41,216.2,-9999.0,'1111122,1111122,1111122' 
DISL,ioos:station:DISL:KATA:1,2012-04-01T22:00:00Z,30.2583,-88.2131,0.0,4.36,205.6,-9999.0,'1111122,1111122,1111122' 
DISL,ioos:station:DISL:KATA:1,2012-04-01T22:30:00Z,30.2583,-88.2131,0.0,4.71,205.0,-9999.0,'1111122,1111122,1111122' 
DISL,ioos:station:DISL:KATA:1,2012-04-01T23:00:00Z,30.2583,-88.2131,0.0,5.12,197.1,-9999.0,'1111122,1111122,1111122' 
DISL,ioos:station:DISL:KATA:1,2012-04-01T23:30:00Z,30.2583,-88.2131,0.0,5.58,198.9,-9999.0,'1111122,1111122,1111122' 
DISL,ioos:station:DISL:KATA:1,2012-04-02T00:00:00Z,30.2583,-88.2131,0.0,4.12,202.3,-9999.0,'1111122,1111122,1111122' 
DISL,ioos:station:DISL:KATA:1,2012-04-02T00:30:00Z,30.2583,-88.2131,0.0,4.79,201.0,-9999.0,'1111122,1111122,1111122' 
DISL,ioos:station:DISL:KATA:1,2012-04-02T01:00:00Z,30.2583,-88.2131,0.0,5.02,192.9,-9999.0,'1111122,1111122,1111122' 
DISL,ioos:station:DISL:KATA:1,2012-04-02T01:30:00Z,30.2583,-88.2131,0.0,5.45,194.7,-9999.0,'1111122,1111122,1111122' 
DISL,ioos:station:DISL:KATA:1,2012-04-02T02:00:00Z,30.2583,-88.2131,0.0,5.85,199.1,-9999.0,'1111122,1111122,1111122' 
DISL,ioos:station:DISL:KATA:1,2012-04-02T02:30:00Z,30.2583,-88.2131,0.0,6.18,203.0,-9999.0,'1111122,1111122,1111122' 
DISL,ioos:station:DISL:KATA:1,2012-04-02T03:00:00Z,30.2583,-88.2131,0.0,5.74,200.0,-9999.0,'1111122,1111122,1111122' 
DISL,ioos:station:DISL:KATA:1,2012-04-02T03:30:00Z,30.2583,-88.2131,0.0,5.73,199.0,-9999.0,'1111122,1111122,1111122' 
DISL,ioos:station:DISL:KATA:1,2012-04-02T04:00:00Z,30.2583,-88.2131,0.0,6.3,200.5,-9999.0,'1111122,1111122,1111122' 
DISL,ioos:station:DISL:KATA:1,2012-04-02T04:30:00Z,30.2583,-88.2131,0.0,6.49,192.7,-9999.0,'1111122,1111122,1111122' 
DISL,ioos:station:DISL:KATA:1,2012-04-02T05:00:00Z,30.2583,-88.2131,0.0,6.91,193.4,-9999.0,'1111122,1111122,1111122' 
DISL,ioos:station:DISL:KATA:1,2012-04-02T05:30:00Z,30.2583,-88.2131,0.0,7.15,192.2,-9999.0,'1111122,1111122,1111122' 
DISL,ioos:station:DISL:KATA:1,2012-04-02T06:00:00Z,30.2583,-88.2131,0.0,7.69,197.6,-9999.0,'1111122,1111122,1111122' 
DISL,ioos:station:DISL:KATA:1,2012-04-02T06:30:00Z,30.2583,-88.2131,0.0,7.88,199.9,-9999.0,'1111122,1111122,1111122' 
DISL,ioos:station:DISL:KATA:1,2012-04-02T07:00:00Z,30.2583,-88.2131,0.0,7.32,201.7,-9999.0,'1111122,1111122,1111122' 
DISL,ioos:station:DISL:KATA:1,2012-04-02T07:30:00Z,30.2583,-88.2131,0.0,7.5,201.2,-9999.0,'1111122,1111122,1111122' 
DISL,ioos:station:DISL:KATA:1,2012-04-02T08:00:00Z,30.2583,-88.2131,0.0,7.25,199.5,-9999.0,'1111122,1111122,1111122' 
DISL,ioos:station:DISL:KATA:1,2012-04-02T08:30:00Z,30.2583,-88.2131,0.0,6.57,198.5,-9999.0,'1111122,1111122,1111122' 
DISL,ioos:station:DISL:KATA:1,2012-04-02T09:00:00Z,30.2583,-88.2131,0.0,6.18,192.1,-9999.0,'1111122,1111122,1111122' 
DISL,ioos:station:DISL:KATA:1,2012-04-02T09:30:00Z,30.2583,-88.2131,0.0,5.71,198.7,-9999.0,'1111122,1111122,1111122' 
DISL,ioos:station:DISL:KATA:1,2012-04-02T10:00:00Z,30.2583,-88.2131,0.0,5.74,207.1,-9999.0,'1111122,1111122,1111122' 
DISL,ioos:station:DISL:KATA:1,2012-04-02T10:30:00Z,30.2583,-88.2131,0.0,4.9,203.8,-9999.0,'1111122,1111122,1111122' 
DISL,ioos:station:DISL:KATA:1,2012-04-02T11:00:00Z,30.2583,-88.2131,0.0,4.95,202.0,-9999.0,'1111122,1111122,1111122' 
DISL,ioos:station:DISL:KATA:1,2012-04-02T11:30:00Z,30.2583,-88.2131,0.0,4.97,203.9,-9999.0,'1111122,1111122,1111122' 
DISL,ioos:station:DISL:KATA:1,2012-04-02T12:00:00Z,30.2583,-88.2131,0.0,4.85,203.0,-9999.0,'1111122,1111122,1111122' 
DISL,ioos:station:DISL:KATA:1,2012-04-02T12:30:00Z,30.2583,-88.2131,0.0,3.79,201.4,-9999.0,'1111122,1111122,1111122' 
DISL,ioos:station:DISL:KATA:1,2012-04-02T13:00:00Z,30.2583,-88.2131,0.0,3.46,208.0,-9999.0,'1111122,1111122,1111122' 
DISL,ioos:station:DISL:KATA:1,2012-04-02T13:30:00Z,30.2583,-88.2131,0.0,3.99,208.8,-9999.0,'1111122,1111122,1111122' 
DISL,ioos:station:DISL:KATA:1,2012-04-02T14:00:00Z,30.2583,-88.2131,0.0,3.48,200.6,-9999.0,'1111122,1111122,1111122' 
DISL,ioos:station:DISL:KATA:1,2012-04-02T14:30:00Z,30.2583,-88.2131,0.0,2.58,189.0,-9999.0,'1111122,1111122,1111122' 
DISL,ioos:station:DISL:KATA:1,2012-04-02T15:00:00Z,30.2583,-88.2131,0.0,2.89,163.0,-9999.0,'1111122,1111122,1111122' 
DISL,ioos:station:DISL:KATA:1,2012-04-02T15:30:00Z,30.2583,-88.2131,0.0,3.11,142.5,-9999.0,'1111122,1111122,1111122' 
DISL,ioos:station:DISL:KATA:1,2012-04-02T16:00:00Z,30.2583,-88.2131,0.0,3.87,141.8,-9999.0,'1111122,1111122,1111122' 
DISL,ioos:station:DISL:KATA:1,2012-04-02T16:30:00Z,30.2583,-88.2131,0.0,4.75,145.8,-9999.0,'1111122,1111122,1111122' 
DISL,ioos:station:DISL:KATA:1,2012-04-02T17:00:00Z,30.2583,-88.2131,0.0,4.45,142.2,-9999.0,'1111122,1111122,1111122' 
DISL,ioos:station:DISL:KATA:1,2012-04-02T17:30:00Z,30.2583,-88.2131,0.0,4.85,156.7,-9999.0,'1111122,1111122,1111122' 
DISL,ioos:station:DISL:KATA:1,2012-04-02T18:00:00Z,30.2583,-88.2131,0.0,5.47,152.5,-9999.0,'1111122,1111122,1111122' 
DISL,ioos:station:DISL:KATA:1,2012-04-02T18:30:00Z,30.2583,-88.2131,0.0,5.96,151.7,-9999.0,'1111122,1111122,1111122' 
DISL,ioos:station:DISL:KATA:1,2012-04-02T19:00:00Z,30.2583,-88.2131,0.0,6.47,147.4,-9999.0,'1111122,1111122,1111122' 
DISL,ioos:station:DISL:KATA:1,2012-04-02T19:30:00Z,30.2583,-88.2131,0.0,7.69,158.0,-9999.0,'1111122,1111122,1111122' 
DISL,ioos:station:DISL:KATA:1,2012-04-02T20:00:00Z,30.2583,-88.2131,0.0,7.54,166.6,-9999.0,'1111122,1111122,1111122' 
DISL,ioos:station:DISL:KATA:1,2012-04-02T20:30:00Z,30.2583,-88.2131,0.0,7.89,159.8,-9999.0,'1111122,1111122,1111122' 
DISL,ioos:station:DISL:KATA:1,2012-04-02T21:00:00Z,30.2583,-88.2131,0.0,7.65,168.0,-9999.0,'1111122,1111122,1111122' 
DISL,ioos:station:DISL:KATA:1,2012-04-02T21:30:00Z,30.2583,-88.2131,0.0,7.44,168.3,-9999.0,'1111122,1111122,1111122' 
DISL,ioos:station:DISL:KATA:1,2012-04-02T22:00:00Z,30.2583,-88.2131,0.0,7.57,174.6,-9999.0,'1111122,1111122,1111122' 
DISL,ioos:station:DISL:KATA:1,2012-04-02T22:30:00Z,30.2583,-88.2131,0.0,7.26,162.8,-9999.0,'1111122,1111122,1111122' 
DISL,ioos:station:DISL:KATA:1,2012-04-02T23:00:00Z,30.2583,-88.2131,0.0,7.22,163.0,-9999.0,'1111122,1111122,1111122' 
DISL,ioos:station:DISL:KATA:1,2012-04-02T23:30:00Z,30.2583,-88.2131,0.0,6.42,165.5,-9999.0,'1111122,1111122,1111122' 
DISL,ioos:station:DISL:KATA:1,2012-04-03T00:00:00Z,30.2583,-88.2131,0.0,5.14,161.8,-9999.0,'1111122,1111122,1111122' 
DISL,ioos:station:DISL:KATA:1,2012-04-03T00:30:00Z,30.2583,-88.2131,0.0,5.36,157.2,-9999.0,'1111122,1111122,1111122' 
DISL,ioos:station:DISL:KATA:1,2012-04-03T01:00:00Z,30.2583,-88.2131,0.0,5.53,152.4,-9999.0,'1111122,1111122,1111122' 
DISL,ioos:station:DISL:KATA:1,2012-04-03T01:30:00Z,30.2583,-88.2131,0.0,5.17,160.3,-9999.0,'1111122,1111122,1111122' 
DISL,ioos:station:DISL:KATA:1,2012-04-03T02:00:00Z,30.2583,-88.2131,0.0,4.75,165.4,-9999.0,'1111122,1111122,1111122' 
DISL,ioos:station:DISL:KATA:1,2012-04-03T02:30:00Z,30.2583,-88.2131,0.0,4.72,169.1,-9999.0,'1111122,1111122,1111122' 
DISL,ioos:station:DISL:KATA:1,2012-04-03T03:00:00Z,30.2583,-88.2131,0.0,2.86,194.5,-9999.0,'1111122,1111122,1111122' 
DISL,ioos:station:DISL:KATA:1,2012-04-03T03:30:00Z,30.2583,-88.2131,0.0,9.23,341.7,-9999.0,'1111122,1111122,1111122' 
DISL,ioos:station:DISL:KATA:1,2012-04-03T04:00:00Z,30.2583,-88.2131,0.0,12.52,1.077,-9999.0,'1111122,1111122,1111122' 
DISL,ioos:station:DISL:KATA:1,2012-04-03T04:30:00Z,30.2583,-88.2131,0.0,11.37,11.95,-9999.0,'1111122,1111122,1111122' 
DISL,ioos:station:DISL:KATA:1,2012-04-03T05:00:00Z,30.2583,-88.2131,0.0,6.74,18.51,-9999.0,'1111122,1111122,1111122' 
DISL,ioos:station:DISL:KATA:1,2012-04-03T05:30:00Z,30.2583,-88.2131,0.0,7.65,334.8,-9999.0,'1111122,1111122,1111122' 
DISL,ioos:station:DISL:KATA:1,2012-04-03T06:00:00Z,30.2583,-88.2131,0.0,5.96,351.6,-9999.0,'1111122,1111122,1111122' 
DISL,ioos:station:DISL:KATA:1,2012-04-03T06:30:00Z,30.2583,-88.2131,0.0,8.76,294.2,-9999.0,'1111122,1111122,1111122' 
DISL,ioos:station:DISL:KATA:1,2012-04-03T07:00:00Z,30.2583,-88.2131,0.0,7.62,296.9,-9999.0,'1111122,1111122,1111122' 
DISL,ioos:station:DISL:KATA:1,2012-04-03T07:30:00Z,30.2583,-88.2131,0.0,10.79,2.476,-9999.0,'1111122,1111122,1111122' 
DISL,ioos:station:DISL:KATA:1,2012-04-03T08:00:00Z,30.2583,-88.2131,0.0,6.85,16.21,-9999.0,'1111122,1111122,1111122' 
DISL,ioos:station:DISL:KATA:1,2012-04-03T08:30:00Z,30.2583,-88.2131,0.0,4.34,313.8,-9999.0,'1111122,1111122,1111122' 
DISL,ioos:station:DISL:KATA:1,2012-04-03T09:00:00Z,30.2583,-88.2131,0.0,4.44,280.4,-9999.0,'1111122,1111122,1111122' 
DISL,ioos:station:DISL:KATA:1,2012-04-03T09:30:00Z,30.2583,-88.2131,0.0,2.64,134.4,-9999.0,'1111122,1111122,1111122' 
DISL,ioos:station:DISL:KATA:1,2012-04-03T10:00:00Z,30.2583,-88.2131,0.0,3.24,104.4,-9999.0,'1111122,1111122,1111122' 
DISL,ioos:station:DISL:KATA:1,2012-04-03T10:30:00Z,30.2583,-88.2131,0.0,5.26,105.1,-9999.0,'1111122,1111122,1111122' 
DISL,ioos:station:DISL:KATA:1,2012-04-03T11:00:00Z,30.2583,-88.2131,0.0,8.13,105.6,-9999.0,'1111122,1111122,1111122' 
DISL,ioos:station:DISL:KATA:1,2012-04-03T11:30:00Z,30.2583,-88.2131,0.0,8.36,118.2,-9999.0,'1111122,1111122,1111122' 
DISL,ioos:station:DISL:KATA:1,2012-04-03T12:00:00Z,30.2583,-88.2131,0.0,9.59,115.7,-9999.0,'1111122,1111122,1111122' 
DISL,ioos:station:DISL:KATA:1,2012-04-03T12:30:00Z,30.2583,-88.2131,0.0,7.14,140.8,-9999.0,'1111122,1111122,1111122' 
DISL,ioos:station:DISL:KATA:1,2012-04-03T13:00:00Z,30.2583,-88.2131,0.0,7.14,161.7,-9999.0,'1111122,1111122,1111122' 
DISL,ioos:station:DISL:KATA:1,2012-04-03T13:30:00Z,30.2583,-88.2131,0.0,7.83,157.9,-9999.0,'1111122,1111122,1111122' 
DISL,ioos:station:DISL:KATA:1,2012-04-03T14:00:00Z,30.2583,-88.2131,0.0,6.26,157.3,-9999.0,'1111122,1111122,1111122' 
DISL,ioos:station:DISL:KATA:1,2012-04-03T14:30:00Z,30.2583,-88.2131,0.0,6.53,156.6,-9999.0,'1111122,1111122,1111122' 
DISL,ioos:station:DISL:KATA:1,2012-04-03T15:00:00Z,30.2583,-88.2131,0.0,5.48,165.5,-9999.0,'1111122,1111122,1111122' 
DISL,ioos:station:DISL:KATA:1,2012-04-03T15:30:00Z,30.2583,-88.2131,0.0,4.34,175.2,-9999.0,'1111122,1111122,1111122' 
DISL,ioos:station:DISL:KATA:1,2012-04-03T16:00:00Z,30.2583,-88.2131,0.0,2.88,208.5,-9999.0,'1111122,1111122,1111122' 
DISL,ioos:station:DISL:KATA:1,2012-04-03T16:30:00Z,30.2583,-88.2131,0.0,1.36,215.1,-9999.0,'1111122,1111122,1111122' 
DISL,ioos:station:DISL:KATA:1,2012-04-03T17:00:00Z,30.2583,-88.2131,0.0,1.04,278.0,-9999.0,'1111122,1111122,1111122' 
DISL,ioos:station:DISL:KATA:1,2012-04-03T17:30:00Z,30.2583,-88.2131,0.0,0.34,252.0,-9999.0,'1111122,1111122,1111122' 
DISL,ioos:station:DISL:KATA:1,2012-04-03T18:00:00Z,30.2583,-88.2131,0.0,0.73,288.5,-9999.0,'1111122,1111122,1111122' 
DISL,ioos:station:DISL:KATA:1,2012-04-03T18:30:00Z,30.2583,-88.2131,0.0,1.01,156.0,-9999.0,'1111122,1111122,1111122' 
DISL,ioos:station:DISL:KATA:1,2012-04-03T19:00:00Z,30.2583,-88.2131,0.0,2.08,189.9,-9999.0,'1111122,1111122,1111122' 
DISL,ioos:station:DISL:KATA:1,2012-04-03T19:30:00Z,30.2583,-88.2131,0.0,0.96,195.6,-9999.0,'1111122,1111122,1111122' 
DISL,ioos:station:DISL:KATA:1,2012-04-03T20:00:00Z,30.2583,-88.2131,0.0,1.26,193.6,-9999.0,'1111122,1111122,1111122' 
DISL,ioos:station:DISL:KATA:1,2012-04-03T20:30:00Z,30.2583,-88.2131,0.0,1.64,161.2,-9999.0,'1111122,1111122,1111122' 
DISL,ioos:station:DISL:KATA:1,2012-04-03T21:00:00Z,30.2583,-88.2131,0.0,2.75,174.1,-9999.0,'1111122,1111122,1111122' 
DISL,ioos:station:DISL:KATA:1,2012-04-03T21:30:00Z,30.2583,-88.2131,0.0,2.26,196.6,-9999.0,'1111122,1111122,1111122' 
DISL,ioos:station:DISL:KATA:1,2012-04-03T22:00:00Z,30.2583,-88.2131,0.0,3.12,172.5,-9999.0,'1111122,1111122,1111122' 
DISL,ioos:station:DISL:KATA:1,2012-04-03T22:30:00Z,30.2583,-88.2131,0.0,3.51,176.7,-9999.0,'1111122,1111122,1111122' 
DISL,ioos:station:DISL:KATA:1,2012-04-03T23:00:00Z,30.2583,-88.2131,0.0,3.63,166.5,-9999.0,'1111122,1111122,1111122' 
DISL,ioos:station:DISL:KATA:1,2012-04-03T23:30:00Z,30.2583,-88.2131,0.0,4.66,160.0,-9999.0,'1111122,1111122,1111122' 
DISL,ioos:station:DISL:KATA:1,2012-04-04T00:00:00Z,30.2583,-88.2131,0.0,5.2,143.8,-9999.0,'1111122,1111122,1111122' 
DISL,ioos:station:DISL:KATA:1,2012-04-04T00:30:00Z,30.2583,-88.2131,0.0,4.52,147.4,-9999.0,'1111122,1111122,1111122' 
DISL,ioos:station:DISL:KATA:1,2012-04-04T01:00:00Z,30.2583,-88.2131,0.0,4.85,137.9,-9999.0,'1111122,1111122,1111122' 
DISL,ioos:station:DISL:KATA:1,2012-04-04T01:30:00Z,30.2583,-88.2131,0.0,4.61,127.2,-9999.0,'1111122,1111122,1111122' 
DISL,ioos:station:DISL:KATA:1,2012-04-04T02:00:00Z,30.2583,-88.2131,0.0,4.98,124.6,-9999.0,'1111122,1111122,1111122' 
DISL,ioos:station:DISL:KATA:1,2012-04-04T02:30:00Z,30.2583,-88.2131,0.0,5.97,120.1,-9999.0,'1111122,1111122,1111122' 
DISL,ioos:station:DISL:KATA:1,2012-04-04T03:00:00Z,30.2583,-88.2131,0.0,6.03,118.4,-9999.0,'1111122,1111122,1111122' 
DISL,ioos:station:DISL:KATA:1,2012-04-04T03:30:00Z,30.2583,-88.2131,0.0,5.42,123.7,-9999.0,'1111122,1111122,1111122' 
DISL,ioos:station:DISL:KATA:1,2012-04-04T04:00:00Z,30.2583,-88.2131,0.0,4.73,125.2,-9999.0,'1111122,1111122,1111122' 
DISL,ioos:station:DISL:KATA:1,2012-04-04T04:30:00Z,30.2583,-88.2131,0.0,5.14,119.6,-9999.0,'1111122,1111122,1111122' 
DISL,ioos:station:DISL:KATA:1,2012-04-04T05:00:00Z,30.2583,-88.2131,0.0,4.82,128.7,-9999.0,'1111122,1111122,1111122' 
DISL,ioos:station:DISL:KATA:1,2012-04-04T05:30:00Z,30.2583,-88.2131,0.0,3.51,106.5,-9999.0,'1111122,1111122,1111122' 
DISL,ioos:station:DISL:KATA:1,2012-04-04T06:00:00Z,30.2583,-88.2131,0.0,2.4,75.02,-9999.0,'1111122,1111122,1111122' 
DISL,ioos:station:DISL:KATA:1,2012-04-04T06:30:00Z,30.2583,-88.2131,0.0,3.57,67.35,-9999.0,'1111122,1111122,1111122' 
DISL,ioos:station:DISL:KATA:1,2012-04-04T07:00:00Z,30.2583,-88.2131,0.0,4.66,78.4,-9999.0,'1111122,1111122,1111122' 
DISL,ioos:station:DISL:KATA:1,2012-04-04T07:30:00Z,30.2583,-88.2131,0.0,5.6,95.6,-9999.0,'1111122,1111122,1111122' 
DISL,ioos:station:DISL:KATA:1,2012-04-04T08:00:00Z,30.2583,-88.2131,0.0,6.51,58.39,-9999.0,'1111122,1111122,1111122' 
DISL,ioos:station:DISL:KATA:1,2012-04-04T08:30:00Z,30.2583,-88.2131,0.0,17.39,314.4,-9999.0,'1111122,1111122,1111122' 
DISL,ioos:station:DISL:KATA:1,2012-04-04T09:00:00Z,30.2583,-88.2131,0.0,13.94,9.92,-9999.0,'1111122,1111122,1111122' 
DISL,ioos:station:DISL:KATA:1,2012-04-04T09:30:00Z,30.2583,-88.2131,0.0,11.56,19.8,-9999.0,'1111122,1111122,1111122' 
DISL,ioos:station:DISL:KATA:1,2012-04-04T10:00:00Z,30.2583,-88.2131,0.0,13.67,358.9,-9999.0,'1111122,1111122,1111122' 
DISL,ioos:station:DISL:KATA:1,2012-04-04T10:30:00Z,30.2583,-88.2131,0.0,8.16,283.4,-9999.0,'1111122,1111122,1111122' 
DISL,ioos:station:DISL:KATA:1,2012-04-04T11:00:00Z,30.2583,-88.2131,0.0,11.86,320.2,-9999.0,'1111122,1111122,1111122' 
DISL,ioos:station:DISL:KATA:1,2012-04-04T11:30:00Z,30.2583,-88.2131,0.0,8.51,345.0,-9999.0,'1111122,1111122,1111122' 
DISL,ioos:station:DISL:KATA:1,2012-04-04T12:00:00Z,30.2583,-88.2131,0.0,7.26,298.4,-9999.0,'1111122,1111122,1111122' 
DISL,ioos:station:DISL:KATA:1,2012-04-04T12:30:00Z,30.2583,-88.2131,0.0,10.92,281.8,-9999.0,'1111122,1111122,1111122' 
DISL,ioos:station:DISL:KATA:1,2012-04-04T13:00:00Z,30.2583,-88.2131,0.0,11.0,289.1,-9999.0,'1111122,1111122,1111122' 
DISL,ioos:station:DISL:KATA:1,2012-04-04T13:30:00Z,30.2583,-88.2131,0.0,6.5,306.6,-9999.0,'1111122,1111122,1111122' 
DISL,ioos:station:DISL:KATA:1,2012-04-04T14:00:00Z,30.2583,-88.2131,0.0,5.37,345.0,-9999.0,'1111122,1111122,1111122' 
DISL,ioos:station:DISL:KATA:1,2012-04-04T14:30:00Z,30.2583,-88.2131,0.0,8.93,330.2,-9999.0,'1111122,1111122,1111122' 
DISL,ioos:station:DISL:KATA:1,2012-04-04T15:00:00Z,30.2583,-88.2131,0.0,12.27,328.6,-9999.0,'1111122,1111122,1111122' 
DISL,ioos:station:DISL:KATA:1,2012-04-04T15:30:00Z,30.2583,-88.2131,0.0,12.13,316.4,-9999.0,'1111122,1111122,1111122' 
DISL,ioos:station:DISL:KATA:1,2012-04-04T16:00:00Z,30.2583,-88.2131,0.0,10.11,311.8,-9999.0,'1111122,1111122,1111122' 
DISL,ioos:station:DISL:KATA:1,2012-04-04T16:30:00Z,30.2583,-88.2131,0.0,6.79,349.4,-9999.0,'1111122,1111122,1111122' 
DISL,ioos:station:DISL:KATA:1,2012-04-04T17:00:00Z,30.2583,-88.2131,0.0,7.15,44.04,-9999.0,'1111122,1111122,1111122' 
DISL,ioos:station:DISL:KATA:1,2012-04-04T17:30:00Z,30.2583,-88.2131,0.0,12.09,89.9,-9999.0,'1111122,1111122,1111122' 
DISL,ioos:station:DISL:KATA:1,2012-04-04T18:00:00Z,30.2583,-88.2131,0.0,10.73,127.5,-9999.0,'1111122,1111122,1111122' 
DISL,ioos:station:DISL:KATA:1,2012-04-04T18:30:00Z,30.2583,-88.2131,0.0,9.8,156.5,-9999.0,'1111122,1111122,1111122' 
DISL,ioos:station:DISL:KATA:1,2012-04-04T19:00:00Z,30.2583,-88.2131,0.0,10.7,154.5,-9999.0,'1111122,1111122,1111122' 
DISL,ioos:station:DISL:KATA:1,2012-04-04T19:30:00Z,30.2583,-88.2131,0.0,9.76,167.9,-9999.0,'1111122,1111122,1111122' 
DISL,ioos:station:DISL:KATA:1,2012-04-04T20:00:00Z,30.2583,-88.2131,0.0,10.12,178.9,-9999.0,'1111122,1111122,1111122' 
DISL,ioos:station:DISL:KATA:1,2012-04-04T20:30:00Z,30.2583,-88.2131,0.0,8.53,172.1,-9999.0,'1111122,1111122,1111122' 
DISL,ioos:station:DISL:KATA:1,2012-04-04T21:00:00Z,30.2583,-88.2131,0.0,8.15,160.8,-9999.0,'1111122,1111122,1111122' 
DISL,ioos:station:DISL:KATA:1,2012-04-04T21:30:00Z,30.2583,-88.2131,0.0,7.03,165.7,-9999.0,'1111122,1111122,1111122' 
DISL,ioos:station:DISL:KATA:1,2012-04-04T22:00:00Z,30.2583,-88.2131,0.0,5.99,169.8,-9999.0,'1111122,1111122,1111122' 
DISL,ioos:station:DISL:KATA:1,2012-04-04T22:30:00Z,30.2583,-88.2131,0.0,4.39,147.2,-9999.0,'1111122,1111122,1111122' 
DISL,ioos:station:DISL:KATA:1,2012-04-04T23:00:00Z,30.2583,-88.2131,0.0,3.58,143.5,-9999.0,'1111122,1111122,1111122' 
DISL,ioos:station:DISL:KATA:1,2012-04-04T23:30:00Z,30.2583,-88.2131,0.0,4.03,121.2,-9999.0,'1111122,1111122,1111122' 
DISL,ioos:station:DISL:KATA:1,2012-04-05T00:00:00Z,30.2583,-88.2131,0.0,3.49,122.7,-9999.0,'1111122,1111122,1111122' 
DISL,ioos:station:DISL:KATA:1,2012-04-05T00:30:00Z,30.2583,-88.2131,0.0,2.69,148.4,-9999.0,'1111122,1111122,1111122' 
DISL,ioos:station:DISL:KATA:1,2012-04-05T01:00:00Z,30.2583,-88.2131,0.0,2.59,131.6,-9999.0,'1111122,1111122,1111122' 
DISL,ioos:station:DISL:KATA:1,2012-04-05T01:30:00Z,30.2583,-88.2131,0.0,2.49,198.7,-9999.0,'1111122,1111122,1111122' 
DISL,ioos:station:DISL:KATA:1,2012-04-05T02:00:00Z,30.2583,-88.2131,0.0,2.56,192.6,-9999.0,'1111122,1111122,1111122' 
DISL,ioos:station:DISL:KATA:1,2012-04-05T02:30:00Z,30.2583,-88.2131,0.0,1.89,179.9,-9999.0,'1111122,1111122,1111122' 
DISL,ioos:station:DISL:KATA:1,2012-04-05T03:00:00Z,30.2583,-88.2131,0.0,2.01,232.7,-9999.0,'1111122,1111122,1111122' 
DISL,ioos:station:DISL:KATA:1,2012-04-05T03:30:00Z,30.2583,-88.2131,0.0,3.14,250.5,-9999.0,'1111122,1111122,1111122' 
DISL,ioos:station:DISL:KATA:1,2012-04-05T04:00:00Z,30.2583,-88.2131,0.0,2.08,249.4,-9999.0,'1111122,1111122,1111122' 
DISL,ioos:station:DISL:KATA:1,2012-04-05T04:30:00Z,30.2583,-88.2131,0.0,1.21,251.5,-9999.0,'1111122,1111122,1111122' 